[[{"header":{"parameterUnit":"m.s-1","parameterCategory":1,"la1":30.2992,"la2":30.254,"lo1":-89.0895,"lo2":-89.0443,"dy":0.0025,"dx":0.0025,"nx":19,"ny":19,"refTime":"2026-05-05T03:00:00:Z","depth":0,"parameterNumber":2,"parameterNumberName":"U-component_of_WINDS"},"data":[0,0,0,-1.5511,-1.5511,-1.5527,-1.5527,-1.5545,-1.5545,0,0,0,0,0,0,0,0,0,0,0,-1.5504,-1.5504,-1.5511,-1.5511,-1.5527,-1.5527,-1.5545,-1.5545,0,0,0,0,0,0,0,0,0,0,0,-1.5504,-1.5504,-1.5505,-1.5511,-1.5527,-1.5527,-1.5545,-1.5534,0,0,0,0,0,0,0,0,0,0,-1.5519,-1.5511,-1.5504,-1.5505,-1.5511,-1.5527,-1.5527,-1.5533,-1.5535,-1.5537,0,-1.5538,0,-1.5542,-1.5546,-1.5546,0,0,0,-1.5513,-1.551,-1.5516,-1.5505,-1.5511,-1.5527,-1.552,-1.5534,-1.5535,-1.5538,-1.5538,-1.5539,-1.5542,-1.5546,-1.5546,-1.5555,-1.5555,0,0,-1.5512,-1.5506,-1.5515,-1.5517,-1.5514,-1.552,-1.5521,-1.5535,-1.5534,-1.5538,-1.5539,-1.5542,-1.5546,-1.5546,-1.5555,-1.5555,0,0,0,-1.5508,-1.5505,-1.5511,-1.5516,-1.5519,-1.552,-1.5521,-1.5534,-1.5536,-1.554,-1.5543,-1.5546,-1.5546,-1.5555,-1.5555,-1.5548,0,0,0,-1.5508,-1.5504,-1.5511,-1.5507,-1.5519,-1.5526,-1.552,-1.5535,-1.5537,-1.5542,-1.5546,-1.5547,-1.5555,-1.5555,-1.5548,-1.5545,0,0,0,-1.5504,-1.5503,-1.5505,-1.5507,-1.5514,-1.5526,-1.5529,-1.5536,-1.5539,-1.5546,-1.5547,-1.5555,-1.5555,-1.5548,-1.5546,-1.5546,0,0,0,-1.5498,-1.5498,-1.5505,-1.5506,-1.5513,-1.5522,-1.5529,-1.5536,-1.5542,-1.5546,-1.5555,-1.5555,-1.5549,-1.5546,-1.5547,-1.5546,-1.5545,0,0,-1.5495,-1.5497,-1.5498,-1.5505,-1.5511,-1.552,-1.5526,-1.5536,-1.5542,-1.555,-1.5551,-1.5548,-1.5546,-1.5546,-1.5542,-1.5542,0,0,0,-1.5495,-1.5496,-1.5499,-1.5504,-1.5513,-1.552,-1.553,-1.5535,-1.5542,-1.5545,-1.5549,-1.5548,-1.5548,-1.5548,-1.5547,-1.5549,-1.5554,-1.5554,-1.5554,-1.5481,-1.549,-1.5493,-1.5503,-1.5509,-1.552,-1.5526,-1.5534,-1.554,-1.5541,-1.5543,-1.5539,-1.5539,-1.5538,-1.554,-1.5544,-1.5543,-1.5543,-1.5543,-1.5477,-1.5479,-1.5489,-1.5495,-1.5505,-1.551,-1.5523,-1.5527,-1.5534,-1.5538,-1.5539,-1.5542,-1.5537,-1.5539,-1.5543,-1.5543,-1.5543,-1.5543,-1.5543,-1.5468,-1.5471,-1.5477,-1.5487,-1.5494,-1.5505,-1.5512,-1.552,-1.5528,-1.5529,-1.5533,-1.5533,-1.5534,-1.553,-1.553,-1.553,-1.553,-1.553,-1.553,-1.5456,-1.5463,-1.5468,-1.5478,-1.5484,-1.5492,-1.5506,-1.5512,-1.552,-1.5526,-1.5526,-1.5533,-1.5536,-1.5536,-1.553,-1.553,-1.553,-1.553,-1.553,-1.5448,-1.5451,-1.5458,-1.5464,-1.5478,-1.5485,-1.5496,-1.5508,-1.5514,-1.5518,-1.5525,-1.5526,-1.5529,-1.553,-1.553,-1.5523,-1.5523,-1.5523,-1.5523,-1.544,-1.5443,-1.5452,-1.5461,-1.5471,-1.5482,-1.5491,-1.5503,-1.5515,-1.552,-1.5523,-1.5524,-1.5524,-1.5527,-1.5528,-1.5528,-1.5521,-1.5521,-1.5521,-1.5435,-1.544,-1.5445,-1.5457,-1.5469,-1.548,-1.5489,-1.5499,-1.5514,-1.5521,-1.5524,-1.5524,-1.5527,-1.5527,-1.5532,-1.5533,-1.5534,0,0]},{"header":{"parameterUnit":"m.s-1","parameterCategory":1,"la1":30.2992,"la2":30.254,"lo1":-89.0895,"lo2":-89.0443,"dy":0.0025,"dx":0.0025,"nx":19,"ny":19,"refTime":"2026-05-05T03:00:00:Z","depth":0,"parameterNumber":3,"parameterNumberName":"V-component_of_WINDS"},"data":[0,0,0,6.9825,6.9825,6.9813,6.9813,6.9809,6.981,0,0,0,0,0,0,0,0,0,0,0,6.9836,6.9836,6.9825,6.9825,6.9813,6.9813,6.9809,6.981,0,0,0,0,0,0,0,0,0,0,0,6.9836,6.9836,6.9836,6.9825,6.9813,6.9813,6.9809,6.9814,0,0,0,0,0,0,0,0,0,0,6.9823,6.9841,6.9836,6.9836,6.9825,6.9813,6.9813,6.9814,6.9814,6.982,0,6.9828,0,6.9819,6.981,6.981,0,0,0,6.9819,6.9841,6.9832,6.9836,6.9825,6.9813,6.9816,6.9814,6.9813,6.982,6.9828,6.9828,6.9819,6.981,6.981,6.987,6.9871,0,0,6.9819,6.9837,6.9832,6.9832,6.9835,6.9817,6.9816,6.9813,6.9823,6.9828,6.9827,6.9819,6.981,6.981,6.987,6.987,0,0,0,6.9825,6.9838,6.9828,6.9832,6.9829,6.9817,6.9816,6.9823,6.9819,6.9827,6.9819,6.981,6.981,6.9869,6.987,6.9916,0,0,0,6.9825,6.9842,6.9829,6.984,6.983,6.9826,6.9826,6.9819,6.9818,6.9819,6.981,6.9811,6.9868,6.9869,6.9913,6.9934,0,0,0,6.9834,6.9842,6.9844,6.9841,6.9836,6.9826,6.9821,6.9818,6.9813,6.981,6.9811,6.9868,6.9869,6.9911,6.993,6.9956,0,0,0,6.9848,6.9883,6.9845,6.9881,6.9837,6.9855,6.982,6.9833,6.9836,6.981,6.9868,6.987,6.991,6.9928,6.9954,6.9981,6.9994,0,0,6.9902,6.989,6.991,6.9875,6.9905,6.9855,6.9892,6.9876,6.9859,6.9867,6.9869,6.9914,6.993,6.9955,7.0061,7.0072,0,0,0,6.9934,6.9948,6.9952,6.9957,6.9947,6.9941,6.9919,6.9914,6.992,6.9867,6.993,6.9939,6.9953,6.9965,6.9974,6.9985,6.9876,6.9876,6.9876,7.0036,7.0013,7.0045,7.0022,7.0027,7.0005,7.0007,6.9996,6.997,6.9986,6.9988,7.0055,7.007,7.0076,7.0089,7.0,7.0001,7.0001,7.0001,7.0113,7.0131,7.0098,7.0118,7.0094,7.011,7.0091,7.0073,7.0084,7.0051,7.0062,7.0028,7.0089,7.0098,7.0004,7.0004,7.0003,7.0003,7.0003,7.0177,7.0182,7.0176,7.0182,7.0189,7.0164,7.0177,7.0155,7.0134,7.0145,7.0145,7.0145,7.0141,7.0147,7.0147,7.0147,7.0148,7.0148,7.0148,7.0246,7.0238,7.0252,7.0247,7.0248,7.0247,7.0227,7.0227,7.0222,7.0204,7.0204,7.0178,7.0099,7.008,7.0151,7.0151,7.015,7.015,7.015,7.0332,7.0309,7.0331,7.0333,7.0326,7.0335,7.0308,7.0311,7.0308,7.0315,7.0287,7.0233,7.0218,7.0211,7.0195,7.0292,7.0292,7.0292,7.0292,7.0386,7.0377,7.0395,7.04,7.0401,7.0379,7.0405,7.0391,7.0373,7.037,7.0353,7.033,7.0323,7.0312,7.0303,7.0287,7.0406,7.0406,7.0406,7.0438,7.0429,7.0455,7.0438,7.0432,7.0427,7.0451,7.0458,7.0432,7.041,7.0367,7.0362,7.0325,7.0314,7.0289,7.0275,7.0246,0,0]}]]